Regional Weather Roundup
Issued by NWS

Home | Current Version | Previous Version | Graphics & Text | Print | Product List | Glossary Off
Versions: 1 2 3 4 5 6 7 8 9 10 11 12 13 14 15 16 17 18 19 20 21 22 23 24 25 26 27 28 29 30 31 32 33 34 35 36 37 38 39 40 41 42 43 44 45 46 47 48 49 50

766
ASUS45 KTFX 051610
RWRMT
MONTANA REGIONAL WEATHER ROUNDUP
NATIONAL WEATHER SERVICE GREAT FALLS MT
900 AM MST MON DEC 05 2016

NOTE: "FAIR" INDICATES FEW OR NO CLOUDS BELOW 12000 FEET WITH NO
SIGNIFICANT WEATHER AND/OR OBSTRUCTIONS TO VISIBILITY.

MTZ001>007-043-051700-
WEST OF THE DIVIDE

CITY           SKY/WX    TMP DP  RH WIND       PRES   REMARKS
KALISPELL      CLOUDY    22  16  78 SW8       29.96R WCI  12
MISSOULA       CLOUDY    23  13  65 N5        30.03R
BUTTE          CLOUDY    14   2  58 NW8       29.87R WCI   3
MULLAN PASS    CLEAR      7   4  87 NW6       29.83R WCI  -3
ANACONDA         N/A     18   3  53 W15G21    29.89R WCI   3
DEER LODGE       N/A     19   5  53 W6        29.92R WCI  11
EUREKA           N/A     25  21  86 S3        29.97R VSB 3/4
HAMILTON         N/A     23   5  46 E6        30.01R WCI  16
LIBBY            N/A     19  16  86 CALM      29.99R
$$

MTZ008-052>055-051700-
SOUTHWEST MONTANA

CITY           SKY/WX    TMP DP  RH WIND       PRES   REMARKS
BOZEMAN        CLOUDY    20  13  74 W5        29.91R
DILLON         CLOUDY    16   0  49 SW16      29.89R WCI   1
ENNIS          MOCLDY    18  -2  41 W15G28    29.91R WCI   3
$$

MTZ009-010-012-014-046-048-049-054-051700-
EAST SLOPES AND CENTRAL MONTANA

CITY           SKY/WX    TMP DP  RH WIND       PRES   REMARKS
CUT BANK       CLOUDY     6   1  80 NW18      29.97R HAZE    WCI -13
GREAT FALLS    CLOUDY    13   8  81 NW12      29.97R WCI  -1
MALMSTROM AFB  CLOUDY    13   8  80 N9        30.00R WCI   1
HELENA         LGT SNOW  19  14  81 W6        29.95R WCI  11
AUGUSTA        FLURRIES   9   4  81 NE10      29.92R WCI  -5
BOWMANS CRNR   FLURRIES  10   8  89 N9        29.91R WCI  -2
CHOTEAU          N/A     10   3  72 N12G17    29.98R WCI  -4
FAIRFIELD        N/A     11   3  71 NW10      29.96R WCI  -3
POWER            N/A      9   6  87 N12       29.95R WCI  -6
RAYNESFORD     LGT SNOW  10   8  88 NW7       29.96R WCI   0
ULM            CLOUDY    14  11  86 N13       29.98R WCI   0
$$

MTZ011-013-016-021-045-047-050-051-051700-
NORTH CENTRAL MONTANA

CITY           SKY/WX    TMP DP  RH WIND       PRES   REMARKS
HAVRE          CLOUDY     8   1  73 NW16      30.03R WCI -10
LEWISTOWN      FLURRIES  10   6  84 NW14G24   29.88R WCI  -6
N BAR RANCH    FLURRIES  12   5  73 W25G36    29.79R WCI  -8
CHINOOK          N/A      9   0  66 W15G23    30.00R WCI  -8
DENTON         FLURRIES  10   6  83 NW12G30   29.90R WCI  -5
GEYSER         MOCLDY    12   5  74 W21G26    29.89R WCI  -7
GRASS RANGE    FLURRIES  14   9  78 W28G36    29.81R WCI  -6
JUDITH GAP     FLURRIES  10   6  82 MISG      29.83R
ROY              N/A     12   6  79 MISG      29.84R
STANFORD         N/A     10   7  85 NW23G31   29.87R WCI -10
WINIFRED       MOCLDY    10   5  82 MISG      29.89R
$$

MTZ017>020-022>027-061-062-051700-
NORTHEAST MONTANA

CITY           SKY/WX    TMP DP  RH WIND       PRES   REMARKS
GLASGOW        LGT SNOW  14  10  84 NW31G43   29.83R FOG     WCI  -7
JORDAN           N/A     20  16  84 NW22G30   29.83R WCI   3
SIDNEY         FLURRIES  23  18  81 NW22G31   29.70R WCI   8
WOLF POINT     LGT SNOW  22  15  75 NW22G30   29.80R WCI   6
PLENTYWOOD       N/A     19  18  93 NW35      29.61R VSB 0   WCI  -1
POPLAR           N/A     21  14  73 NW16G23   29.77R WCI   7
$$

MTZ028>42-056>058-051700-
SOUTHCENTRAL AND SOUTHEAST MONTANA

CITY           SKY/WX    TMP DP  RH WIND       PRES   REMARKS
BAKER          CLOUDY    22  16  78 NW28G40   29.65F WCI   4
BILLINGS       CLOUDY    21   8  57 N5        29.85R
LIVINGSTON     CLOUDY    17   8  67 NW16      29.86R WCI   2
MILES CITY     CLOUDY    23  13  65 NW26G33   29.80R WCI   6
BIG TIMBER     MOCLDY    21   5  49 W9G20     29.87R WCI  11
FORSYTH          N/A     23  16  74 W15       29.83R WCI  10
HARLOWTON      MOCLDY    17   6  61 W17       29.84R WCI   1
LAUREL           N/A     21   1  41 W16       29.84R WCI   7
$$

REGIONAL REPORTS...DAKOTAS

CITY           SKY/WX    TMP DP  RH WIND       PRES   REMARKS
WILLISTON      CLOUDY    23  17  78 NW26G35   29.61R BLWGSNOWWCI   6
MINOT          CLOUDY    22  20  92 CALM      29.54R
DICKINSON      CLOUDY    24  20  84 W29G39    29.56S FOG     WCI   7
BEACH          MIX PCPN  21  19  93 NW26G35   29.68R WCI   4
CROSBY         LGT SNOW  21  21 100 NW12      29.60R WCI   9
TIOGA          CLOUDY    19  19 100 NW15G22   29.57R WCI   5
BISMARCK       LGT SNOW  29  27  92 W5        29.58R FOG
GRAND FORKS    FOG       27  25  92 SE12      29.68F VSB 1   WCI  17
FARGO          PTSUNNY   27  23  85 NE8       29.64F WCI  19
BUFFALO SD       N/A     25  18  74 NW39      29.53R WCI   6
RAPID CITY     PTSUNNY   31  24  75 NW38G46   29.56R WCI  15
$$

REGIONAL REPORTS...WYOMING/IDAHO/WASHINGTON

CITY           SKY/WX    TMP DP  RH WIND       PRES   REMARKS
GILLETTE       LGT SNOW  19  18  93 N22G30    29.67R VSB 1   WCI   3
SHERIDAN       CLOUDY    21  16  81 NW17      29.79R WCI   7
CODY           PTSUNNY   14   9  80 NE9       29.79R WCI   2
YELLOWSTONE LA   N/A      3  -3  76 VRB6      29.72R WCI  -8
IDAHO FALLS    CLEAR     20   6  55 SW7       29.98R WCI  11
SALMON         MOCLDY    18   7  62 NE3       30.01R
BOISE          CLEAR     22  16  78 E3        30.14S
SPOKANE        MOCLDY    20  18  92 SE7       30.05R WCI  11
$$

REGIONAL REPORTS...ALBERTA

CITY           SKY/WX    TMP DP  RH WIND       PRES   REMARKS
EDMONTON       LGT SNOW   1  -4  78 NW13G21   30.12R DRFTSNOWWCI -16
CALGARY        PTCLDY     5  -4  66 N10       29.99R WCI -10
LETHBRIDGE     CLOUDY     7  -2  66 N13G20    30.07R WCI  -9
MEDICINE HAT   MOCLDY     3  -2  78 W14       30.06R WCI -15
WATERTON GATE    N/A      5   1  85 E5          N/A
CARDSTON         N/A      5   1  85 N5          N/A
MILK RIVER       N/A      5   0  78 N22G29      N/A  WCI -16
$$

REGIONAL REPORTS...SASKATCHEWAN

CITY           SKY/WX    TMP DP  RH WIND       PRES   REMARKS
SWIFT CURRENT  CLOUDY     3   1  92 NW26G32   29.83R FOG     WCI -20
REGINA         CLOUDY    19  16  86 NW24G31   29.73R WCI   2
SASKATOON      FLURRIES  14   7  73 NW15G24   29.86R WCI  -1
CYPRESS HILLS    N/A     -4  -8  84 NW20G33     N/A  WCI -27
VAL MARIE        N/A      7   0  72 NW22G29     N/A  WCI -14
ROCKGLEN         N/A      9   7  92 NW24G35     N/A  WCI -12
ASSINIBOIA       N/A      1  -4  78 NW18G25     N/A  WCI -19
$$




USA.gov is the U.S. government's official web portal to all federal, state and local government web resources and services.